Location: Camp Creek
(33.9000°N, 111.8167°W)
Time: 11:43:41
(UTC-07:00)

Cosmos 1656 - Visible Passes

Search period start: 23 November 2014 00:00
Search period end: 03 December 2014 00:00
Orbit: 800 x 848 km, 71.1° (Epoch: 23 November)

Date Brightness Start Highest point End Pass type
(mag) Time Alt. Az. Time Alt. Az. Time Alt. Az.
23 Nov 3.9 18:23:05 10° N 18:28:17 42° ENE 18:33:31 10° SE visible
23 Nov 6.0 20:07:36 10° NW 20:11:33 21° W 20:15:33 10° SSW visible
24 Nov 4.2 18:02:52 10° N 18:07:54 36° ENE 18:12:58 10° SE visible
24 Nov 5.8 19:46:56 10° NW 19:51:17 25° WSW 19:55:41 10° SSW visible
25 Nov 4.4 17:42:41 10° N 17:47:31 31° ENE 17:52:22 10° ESE visible
25 Nov 5.5 19:26:20 10° NW 19:31:01 29° WSW 19:35:45 10° SSW visible
26 Nov 5.3 19:05:48 10° NW 19:10:44 35° WSW 19:15:43 10° SSW visible
27 Nov 5.0 18:45:18 10° NW 18:50:27 42° WSW 18:55:38 10° S visible
28 Nov 4.7 18:24:51 10° NNW 18:30:09 50° WSW 18:35:30 10° S visible
29 Nov 4.3 18:04:26 10° NNW 18:09:51 60° WSW 18:15:19 10° S visible
30 Nov 4.0 17:44:02 10° NNW 17:49:32 71° WSW 17:55:05 10° S visible
01 Dec 4.8 06:44:42 10° S 06:49:54 49° ESE 06:55:06 10° NNE visible
02 Dec 5.1 06:24:33 10° S 06:29:36 41° ESE 06:34:39 10° NE visible
